Wind_Speed
38 39 40 42 40 38 36 34 39 34 30 27 19 16 19 23 21 24 35 34 30 36 32 29 32 32 32 33 32 30 28 27 27 26 25 26 28 28
40 42 44 42 40 41 37 38 35 36 32 28 18 19 22 21 24 30 38 38 37 35 28 30 33 33 34 34 33 30 29 29 28 28 28 29 33 32
42 42 41 43 43 43 38 36 36 35 32 28 23 22 21 23 23 29 37 35 29 40 39 31 33 34 34 34 34 31 31 31 32 34 31 34 33 33
44 44 41 41 42 42 38 36 35 32 32 29 26 27 25 25 20 19 28 36 34 30 32 42 34 33 33 34 34 32 33 31 36 35 34 33 34 36
42 45 41 40 37 38 39 38 35 31 31 30 28 27 28 27 26 27 31 33 42 30 30 38 40 33 32 33 32 32 32 36 37 35 35 34 38 41
45 45 41 40 36 39 40 38 35 33 31 30 31 29 31 28 27 30 25 30 42 33 37 37 42 40 38 36 36 33 36 36 35 38 41 42 46 47
45 46 39 38 35 36 36 34 37 35 32 32 32 32 31 25 29 24 25 32 35 39 43 37 32 40 44 42 37 32 41 44 46 43 41 38 38 35
43 43 40 37 35 34 37 34 36 36 33 34 34 31 29 30 28 24 27 36 39 33 32 37 36 39 39 40 38 37 38 36 39 37 32 30 33 33
43 42 41 37 39 35 37 40 39 37 33 29 30 32 26 24 26 29 26 38 33 27 29 33 39 36 40 38 34 42 39 40 37 34 32 31 32 34
41 41 39 39 37 39 40 39 38 37 31 30 28 29 26 28 29 27 30 26 21 27 29 29 32 32 38 42 38 33 31 32 33 30 31 30 30 32
43 39 38 44 37 39 37 38 36 35 28 27 29 26 25 25 25 28 27 29 23 24 25 29 31 32 33 32 29 31 29 32 34 33 32 34 34 37
36 41 41 37 39 39 39 37 36 30 28 32 33 28 27 26 25 24 28 31 26 27 27 30 27 28 34 36 32 32 35 34 31 34 35 35 37 41
38 38 42 42 42 35 37 35 28 27 31 33 29 29 33 29 24 29 28 29 27 26 24 28 28 31 34 31 33 36 39 36 35 34 39 42 39 38
37 38 43 39 35 39 34 35 35 34 29 30 35 28 32 28 25 26 31 32 27 31 32 29 27 26 32 33 33 35 36 39 40 39 41 38 36 35
37 36 31 33 37 32 35 31 34 35 33 33 35 33 33 29 28 29 26 27 26 27 38 36 29 38 38 40 38 39 38 36 38 38 35 32 29 26
42 35 30 39 41 34 30 33 32 31 30 35 35 37 33 27 30 26 29 31 27 29 30 34 39 41 43 42 39 37 37 34 32 29 27 23 23 24
35 32 32 34 29 29 33 35 36 37 35 34 33 35 32 32 33 29 32 31 32 31 33 35 38 39 38 36 33 31 29 26 24 22 22 22 23 24
34 34 34 35 36 37 35 32 32 31 33 32 30 29 30 32 33 35 36 36 38 38 36 36 36 35 32 29 26 23 21 20 20 21 22 22 23 24
34 32 32 36 37 33 34 33 32 31 30 26 28 34 33 35 36 36 37 35 34 34 34 32 30 26 23 22 19 18 19 19 20 20 21 22 24 23
26 31 29 34 37 38 36 36 36 35 38 35 37 39 40 38 37 36 33 30 27 26 24 22 21 18 16 16 17 18 18 19 19 20 20 21 22 23
15 20 21 23 25 29 32 34 34 35 34 37 37 34 30 27 25 24 22 20 20 19 16 14 14 16 18 18 17 17 18 19 20 20 20 21 22 24
11 8 9 11 13 13 13 14 15 16 17 17 16 17 16 16 17 17 16 14 14 15 14 15 15 16 16 16 16 17 18 20 20 20 21 22 23 24
10 11 11 11 11 11 11 12 12 12 13 13 14 13 12 11 10 10 11 11 12 14 15 15 15 15 15 16 17 17 18 19 21 22 23 24 26 28
Wind_Direction
263 262 263 266 266 263 261 263 267 273 285 291 262 244 256 267 252 249 244 255 226 223 235 231 231 229 231 233 232 232 237 241 245 249 254 258 257 264
263 262 262 265 266 266 258 260 259 268 278 290 269 251 257 262 268 253 254 238 233 217 231 230 230 229 229 231 234 235 238 241 243 246 254 260 269 268
261 261 261 260 261 262 253 258 257 263 272 280 260 249 250 262 253 242 235 241 249 223 231 239 235 230 230 231 235 235 241 243 245 249 254 256 262 269
258 257 260 261 256 254 247 254 256 260 269 273 264 257 257 259 258 240 261 256 257 240 238 237 240 236 231 232 234 236 240 244 248 251 254 260 265 269
253 254 257 260 251 242 248 253 253 256 266 265 260 254 252 259 257 248 254 249 242 251 239 243 235 236 236 233 234 239 244 248 252 255 258 262 266 273
249 252 254 254 241 245 247 248 248 254 259 256 255 252 253 256 246 237 241 249 236 243 236 244 243 233 232 232 234 239 247 249 249 248 260 262 267 273
247 249 247 250 241 246 244 239 248 256 256 250 251 252 250 253 238 238 251 232 250 248 230 252 245 231 239 240 241 233 243 244 253 257 263 273 276 276
244 248 244 244 242 248 243 239 247 254 254 246 249 252 247 254 245 253 236 255 235 247 247 243 240 234 232 237 249 230 255 244 261 269 265 280 271 275
240 245 243 239 237 248 231 238 248 254 253 246 245 245 258 265 253 247 247 233 250 248 236 229 232 238 231 243 228 249 244 256 261 263 268 275 272 273
241 243 238 230 233 243 238 242 248 250 247 244 241 246 247 249 253 246 231 242 238 232 240 234 250 240 230 237 247 248 256 253 258 262 271 276 273 277
240 237 230 230 229 232 238 244 245 249 243 245 234 245 243 253 240 234 239 236 233 230 237 240 248 246 245 241 243 250 247 261 259 275 274 272 275 279
236 230 227 231 235 243 241 240 245 241 238 230 244 237 247 242 246 238 227 231 227 235 233 242 249 246 244 245 253 249 251 260 270 268 270 279 280 280
241 239 232 231 240 241 238 241 240 236 233 232 240 244 232 245 252 236 238 248 255 256 245 247 246 243 248 256 247 258 263 265 277 269 271 275 278 279
237 225 237 238 237 236 235 225 235 229 216 229 235 236 245 242 243 236 236 234 239 251 251 254 258 254 248 247 257 261 262 266 269 267 269 275 277 280
226 234 230 240 244 226 234 229 225 224 223 228 233 235 240 238 239 236 236 232 239 236 243 253 242 255 254 259 252 258 264 264 264 269 271 274 276 273
221 234 232 240 236 229 226 225 218 227 232 234 235 228 231 231 235 233 240 241 240 248 243 244 246 245 243 254 261 261 261 261 264 266 269 269 266 271
231 242 231 215 224 218 223 225 227 226 227 229 228 225 232 233 233 239 240 238 243 242 245 248 248 250 255 256 256 257 258 259 262 263 260 263 269 274
222 228 226 218 220 217 231 220 219 222 218 223 226 227 231 233 235 239 239 239 241 243 243 246 249 250 250 251 252 250 252 255 254 257 264 269 273 276
217 220 221 216 214 216 216 214 215 218 225 225 235 232 232 235 237 240 244 245 243 244 246 245 243 242 243 243 246 244 247 253 260 266 271 275 281 283
225 224 224 223 217 214 211 213 218 221 225 227 234 234 236 237 237 238 239 241 241 240 238 234 231 235 237 239 244 249 255 262 268 272 276 280 282 286
209 219 221 223 215 214 214 215 215 219 221 231 227 225 226 227 230 230 227 223 221 218 215 220 230 237 243 248 252 259 266 269 272 276 279 282 286 289
97 127 169 192 203 203 202 202 205 206 206 204 203 205 204 201 201 202 202 201 209 221 231 235 238 244 251 257 262 265 269 272 275 279 282 284 287 289
77 90 97 107 117 127 139 147 154 162 168 172 176 182 191 199 208 217 225 230 231 231 234 240 245 249 254 257 262 267 272 277 280 283 286 288 289 291
Height
3078 3080 3080 3081 3081 3082 3083 3085 3086 3085 3086 3088 3087 3087 3089 3088 3088 3090 3093 3094 3096 3103 3107 3109 3113 3117 3121 3125 3127 3129 3132 3135 3138 3140 3141 3141 3141 3142
3067 3069 3071 3072 3073 3073 3074 3076 3076 3078 3077 3079 3080 3080 3082 3083 3082 3083 3084 3086 3089 3096 3100 3102 3106 3109 3113 3117 3120 3123 3126 3128 3131 3132 3133 3133 3135 3135
3056 3058 3061 3062 3062 3063 3065 3066 3069 3069 3070 3070 3072 3073 3075 3076 3077 3076 3078 3081 3084 3088 3093 3096 3099 3102 3106 3110 3113 3115 3119 3121 3123 3124 3125 3126 3127 3128
3045 3047 3050 3051 3051 3053 3056 3058 3060 3061 3062 3062 3063 3065 3067 3069 3070 3071 3073 3075 3077 3082 3085 3089 3093 3096 3099 3103 3106 3108 3111 3113 3116 3117 3118 3120 3120 3119
3034 3036 3039 3039 3041 3044 3047 3049 3052 3053 3054 3053 3055 3057 3059 3061 3063 3064 3066 3068 3071 3075 3077 3080 3084 3089 3092 3095 3098 3101 3104 3106 3109 3110 3111 3111 3112 3111
3023 3025 3028 3029 3032 3035 3038 3041 3043 3045 3045 3045 3046 3049 3051 3054 3055 3057 3059 3061 3064 3067 3070 3073 3076 3079 3082 3085 3090 3093 3097 3099 3100 3100 3101 3102 3102 3101
3011 3014 3017 3020 3022 3025 3029 3031 3034 3036 3037 3037 3038 3040 3043 3046 3048 3051 3052 3056 3058 3060 3064 3066 3069 3073 3075 3078 3081 3085 3087 3089 3090 3090 3091 3092 3092 3092
2999 3003 3006 3010 3013 3016 3020 3022 3025 3027 3028 3029 3031 3032 3036 3039 3040 3042 3045 3046 3048 3052 3055 3058 3061 3064 3068 3070 3073 3077 3078 3080 3081 3082 3083 3083 3083 3083
2988 2992 2996 3000 3004 3007 3010 3013 3016 3017 3018 3020 3022 3025 3027 3031 3033 3035 3038 3040 3042 3044 3047 3050 3053 3057 3061 3064 3066 3068 3070 3072 3073 3074 3075 3074 3074 3074
2976 2982 2986 2990 2993 2998 3001 3003 3007 3009 3009 3011 3015 3018 3021 3023 3025 3027 3030 3032 3034 3037 3040 3043 3046 3049 3053 3055 3058 3060 3061 3063 3064 3065 3066 3065 3065 3064
2967 2971 2975 2980 2984 2986 2991 2994 2998 2999 3001 3004 3008 3012 3014 3016 3017 3020 3021 3025 3028 3030 3033 3036 3040 3042 3045 3047 3049 3051 3053 3054 3056 3056 3057 3056 3056 3054
2957 2961 2967 2970 2975 2978 2980 2984 2988 2991 2994 2998 3001 3005 3007 3008 3011 3012 3015 3018 3021 3024 3027 3030 3032 3034 3036 3039 3041 3043 3045 3046 3047 3046 3047 3046 3045 3044
2949 2952 2956 2960 2965 2969 2972 2974 2979 2983 2986 2990 2993 2996 2998 3001 3003 3005 3008 3011 3013 3016 3020 3022 3024 3026 3028 3030 3033 3035 3036 3036 3036 3036 3036 3035 3034 3033
2940 2944 2946 2951 2955 2959 2962 2967 2970 2974 2977 2982 2985 2989 2991 2993 2995 2998 3001 3003 3006 3009 3011 3014 3016 3019 3021 3022 3024 3026 3026 3026 3026 3025 3025 3024 3024 3023
2931 2934 2936 2942 2946 2950 2953 2956 2961 2964 2969 2973 2977 2981 2984 2986 2988 2990 2993 2996 2998 3001 3003 3006 3008 3010 3012 3013 3013 3014 3015 3015 3015 3015 3015 3015 3014 3015
2924 2927 2929 2934 2938 2941 2944 2949 2953 2957 2961 2965 2968 2972 2975 2978 2981 2983 2986 2988 2990 2993 2995 2997 2998 3000 3001 3003 3004 3004 3004 3005 3005 3005 3006 3006 3007 3007
2914 2917 2919 2924 2927 2932 2936 2941 2945 2949 2952 2958 2960 2964 2966 2970 2973 2975 2977 2980 2982 2984 2986 2988 2989 2991 2992 2993 2993 2994 2995 2996 2997 2997 2999 2999 2999 2999
2907 2911 2913 2917 2921 2924 2929 2934 2938 2941 2945 2949 2953 2956 2959 2962 2965 2967 2969 2971 2973 2975 2977 2979 2980 2981 2982 2984 2986 2986 2987 2989 2990 2991 2991 2991 2992 2992
2901 2904 2906 2908 2912 2917 2922 2926 2931 2935 2937 2941 2946 2949 2951 2954 2957 2958 2960 2961 2963 2965 2967 2969 2970 2972 2974 2976 2979 2981 2982 2983 2983 2984 2984 2983 2983 2983
2895 2897 2900 2903 2905 2909 2913 2917 2921 2926 2929 2933 2936 2939 2941 2943 2946 2948 2950 2952 2954 2956 2959 2961 2964 2965 2968 2971 2973 2975 2975 2976 2976 2977 2977 2976 2975 2975
2892 2894 2897 2900 2902 2904 2906 2909 2912 2916 2920 2923 2925 2928 2932 2935 2937 2940 2943 2946 2948 2951 2953 2956 2959 2961 2963 2965 2966 2967 2968 2968 2969 2969 2968 2967 2967 2966
2895 2895 2896 2898 2900 2902 2905 2907 2910 2913 2916 2918 2921 2924 2928 2930 2933 2936 2939 2941 2944 2946 2948 2952 2954 2956 2957 2958 2959 2960 2961 2961 2961 2961 2961 2960 2960 2958
2902 2902 2901 2902 2903 2904 2907 2909 2911 2914 2916 2918 2921 2923 2927 2929 2931 2934 2937 2939 2942 2944 2945 2947 2949 2950 2951 2952 2953 2953 2953 2953 2953 2953 2953 2952 2951 2950